DW7589 Weather Reports


time (UTC)temp
C
wind
direction
speed
KPH
gust
KPH
rain 1hr
cm
rain 24hr
cm
rain mn
cm
humidity
%
barometer
mb
20260509210917 33 0 0.0 0.0 0.00 0.00 0.00 40 1007.7
20260509205917 33 0 0.0 0.0 0.00 0.00 0.00 40 1007.7
20260509205418 33 0 0.0 0.0 0.00 0.00 0.00 42 1007.8
20260509204917 33 0 0.0 0.0 0.00 0.00 0.00 41 1007.9
20260509204417 33 0 0.0 0.0 0.00 0.00 0.00 43 1008.0
20260509203919 33 0 0.0 0.0 0.00 0.00 0.00 44 1008.1
20260509203418 33 0 0.0 0.0 0.00 0.00 0.00 42 1008.2
20260509202917 33 0 0.0 0.0 0.00 0.00 0.00 40 1008.3
20260509202418 33 0 0.0 0.0 0.00 0.00 0.00 42 1008.4
20260509201919 33 0 0.0 0.0 0.00 0.00 0.00 41 1008.4
20260509201417 33 0 0.0 0.0 0.00 0.00 0.00 42 1008.4
20260509200917 33 0 0.0 0.0 0.00 0.00 0.00 42 1008.4
20260509200417 33 0 0.0 0.0 0.00 0.00 0.00 43 1008.5
20260509195918 33 0 0.0 0.0 0.00 0.00 0.00 41 1008.5
20260509195432 33 0 0.0 0.0 0.00 0.00 0.00 43 1008.6
20260509194417 32 0 0.0 0.0 0.00 0.00 0.00 42 1008.6
20260509193917 32 0 0.0 0.0 0.00 0.00 0.00 41 1008.7
20260509193418 32 0 0.0 0.0 0.00 0.00 0.00 40 1008.7
20260509192918 32 0 0.0 0.0 0.00 0.00 0.00 43 1008.9
20260509192418 32 0 0.0 0.0 0.00 0.00 0.00 42 1009.0
20260509191918 32 0 0.0 0.0 0.00 0.00 0.00 44 1009.0
20260509191417 32 0 0.0 0.0 0.00 0.00 0.00 42 1009.1
20260509190918 32 0 0.0 0.0 0.00 0.00 0.00 43 1009.1
20260509190417 32 0 0.0 0.0 0.00 0.00 0.00 42 1009.2
20260509185918 32 0 0.0 0.0 0.00 0.00 0.00 43 1009.4
20260509185417 32 0 0.0 0.0 0.00 0.00 0.00 45 1009.3
20260509184918 32 0 0.0 0.0 0.00 0.00 0.00 47 1009.4
20260509184417 31 0 0.0 0.0 0.00 0.00 0.00 45 1009.4
20260509183918 31 0 0.0 0.0 0.00 0.00 0.00 45 1009.5
20260509183417 31 0 0.0 0.0 0.00 0.00 0.00 45 1009.6
20260509182419 32 0 0.0 0.0 0.00 0.00 0.00 44 1009.7
20260509181917 31 0 0.0 0.0 0.00 0.00 0.00 46 1009.8
20260509181418 31 0 0.0 0.0 0.00 0.00 0.00 47 1009.9
20260509180918 31 0 0.0 0.0 0.00 0.00 0.00 48 1009.9
20260509180417 31 0 0.0 0.0 0.00 0.00 0.00 46 1009.9
20260509175919 31 0 0.0 0.0 0.00 0.00 0.00 45 1010.0
20260509175417 30 0 0.0 0.0 0.00 0.00 0.00 45 1010.0
20260509174919 30 0 0.0 0.0 0.00 0.00 0.00 46 1010.1
20260509174417 31 0 0.0 0.0 0.00 0.00 0.00 45 1010.1
20260509173918 31 0 0.0 0.0 0.00 0.00 0.00 48 1010.3
20260509173418 31 0 0.0 0.0 0.00 0.00 0.00 46 1010.3
20260509172418 31 0 0.0 0.0 0.00 0.00 0.00 46 1010.3
20260509171917 30 0 0.0 0.0 0.00 0.00 0.00 49 1010.3
20260509171418 30 0 0.0 0.0 0.00 0.00 0.00 49 1010.3
20260509170918 30 0 0.0 0.0 0.00 0.00 0.00 49 1010.3
20260509170418 30 0 0.0 0.0 0.00 0.00 0.00 50 1010.3
20260509165917 30 0 0.0 0.0 0.00 0.00 0.00 49 1010.3
20260509165419 30 0 0.0 0.0 0.00 0.00 0.00 55 1010.3
20260509164919 30 0 0.0 0.0 0.00 0.00 0.00 56 1010.3
20260509164418 30 0 0.0 0.0 0.00 0.00 0.00 56 1010.3
20260509163918 30 0 0.0 0.0 0.00 0.00 0.00 56 1010.4
20260509162918 29 0 0.0 0.0 0.00 0.00 0.00 56 1010.7
20260509162418 29 0 0.0 0.0 0.00 0.00 0.00 58 1010.6
20260509161918 28 0 0.0 0.0 0.00 0.00 0.00 60 1010.6
20260509161418 28 0 0.0 0.0 0.00 0.00 0.00 61 1010.7
20260509160917 28 0 0.0 0.0 0.00 0.00 0.00 60 1010.7
20260509160418 28 0 0.0 0.0 0.00 0.00 0.00 59 1010.7
20260509155919 28 0 0.0 0.0 0.00 0.00 0.00 59 1010.7
20260509155417 28 0 0.0 0.0 0.00 0.00 0.00 63 1010.8
20260509154918 28 0 0.0 0.0 0.00 0.00 0.00 61 1010.7
20260509154419 28 0 0.0 0.0 0.00 0.00 0.00 62 1010.7
20260509153918 27 0 0.0 0.0 0.00 0.00 0.00 62 1010.8
20260509153418 27 0 0.0 0.0 0.00 0.00 0.00 62 1010.7
20260509152417 27 0 0.0 0.0 0.00 0.00 0.00 66 1010.8
20260509151918 26 0 0.0 0.0 0.00 0.00 0.00 66 1010.7
20260509151419 26 0 0.0 0.0 0.00 0.00 0.00 67 1010.7
20260509150918 26 0 0.0 0.0 0.00 0.00 0.00 68 1010.6
20260509150418 26 0 0.0 0.0 0.00 0.00 0.00 69 1010.6
20260509145918 26 0 0.0 0.0 0.00 0.00 0.00 73 1010.7
20260509145418 26 0 0.0 0.0 0.00 0.00 0.00 73 1010.7
20260509144917 25 0 0.0 0.0 0.00 0.00 0.00 73 1010.7
20260509143919 25 0 0.0 0.0 0.00 0.00 0.00 77 1010.6
20260509143417 25 0 0.0 0.0 0.00 0.00 0.00 79 1010.6
20260509142918 24 0 0.0 0.0 0.00 0.00 0.00 80 1010.5
20260509142417 24 0 0.0 0.0 0.00 0.00 0.00 81 1010.5
20260509141918 23 0 0.0 0.0 0.00 0.00 0.00 83 1010.6
20260509141418 23 0 0.0 0.0 0.00 0.00 0.00 84 1010.6
20260509140917 23 0 0.0 0.0 0.00 0.00 0.00 85 1010.6
20260509140418 23 0 0.0 0.0 0.00 0.00 0.00 87 1010.6
20260509135919 23 0 0.0 0.0 0.00 0.00 0.00 88 1010.6
20260509135419 22 0 0.0 0.0 0.00 0.00 0.00 89 1010.5
20260509134918 22 0 0.0 0.0 0.00 0.00 0.00 90 1010.7
20260509134419 22 0 0.0 0.0 0.00 0.00 0.00 90 1010.7
20260509133919 22 0 0.0 0.0 0.00 0.00 0.00 90 1010.6
20260509133417 22 0 0.0 0.0 0.00 0.00 0.00 90 1010.8
20260509132918 22 0 0.0 0.0 0.00 0.00 0.00 91 1010.6
20260509132418 22 0 0.0 0.0 0.00 0.00 0.00 91 1010.5
20260509131918 22 0 0.0 0.0 0.00 0.00 0.00 91 1010.3
20260509131417 21 0 0.0 0.0 0.00 0.00 0.00 91 1010.2
20260509130918 21 0 0.0 0.0 0.00 0.00 0.00 91 1010.1
20260509130418 22 0 0.0 0.0 0.00 0.00 0.00 91 1009.9
20260509125918 22 0 0.0 0.0 0.00 0.00 0.00 91 1009.9
20260509125420 22 0 0.0 0.0 0.00 0.00 0.00 91 1009.7
20260509124418 21 0 0.0 0.0 0.00 0.00 0.00 92 1009.7
20260509123919 21 0 0.0 0.0 0.00 0.00 0.00 92 1009.6
20260509123418 21 0 0.0 0.0 0.00 0.00 0.00 92 1009.4
20260509122418 21 0 0.0 0.0 0.00 0.00 0.00 93 1009.2
20260509121919 21 0 0.0 0.0 0.00 0.00 0.00 93 1009.0
20260509120918 21 0 0.0 0.0 0.00 0.00 0.00 93 1008.3
20260509120419 21 0 0.0 0.0 0.00 0.00 0.00 93 1008.7
20260509115418 21 0 0.0 0.0 0.00 0.00 0.00 93 1007.1
20260509114918 21 0 0.0 0.0 0.00 0.00 0.00 94 1007.2
20260509114419 21 0 0.0 0.0 0.00 0.00 0.00 94 1007.6
20260509113918 21 0 0.0 0.0 0.00 0.00 0.00 94 1007.8
20260509113418 21 0 0.0 0.0 0.00 0.00 0.00 94 1008.1
20260509112920 21 0 0.0 0.0 0.00 0.00 0.00 94 1008.4
20260509112417 21 0 0.0 0.0 0.00 0.00 0.00 94 1008.5
20260509111918 21 0 0.0 0.0 0.00 0.00 0.00 94 1008.6
20260509110919 21 0 0.0 0.0 0.00 0.00 0.00 94 1008.5
20260509105918 21 0 0.0 0.0 0.00 0.00 0.00 94 1008.6
20260509105419 21 0 0.0 0.0 0.00 0.00 0.00 94 1008.5
20260509104918 20 0 0.0 0.0 0.00 0.00 0.00 94 1008.8
20260509104418 20 0 0.0 0.0 0.00 0.00 0.00 94 1008.6
20260509102919 20 0 0.0 0.0 0.00 0.00 0.00 94 1009.1
20260509102418 20 0 0.0 0.0 0.00 0.00 0.00 94 1009.2
20260509101918 20 0 0.0 0.0 0.00 0.00 0.00 94 1009.2
20260509101418 20 0 0.0 0.0 0.00 0.00 0.00 94 1009.0
20260509100918 20 0 0.0 0.0 0.00 0.00 0.00 94 1009.1
20260509100419 20 0 0.0 0.0 0.00 0.00 0.00 94 1009.4
20260509095919 20 0 0.0 0.0 0.00 0.00 0.00 93 1009.5
20260509095419 20 0 0.0 0.0 0.00 0.00 0.00 93 1009.7
20260509094418 20 0 0.0 0.0 0.00 0.00 0.00 93 1010.0
20260509093918 20 0 0.0 0.0 0.00 0.00 0.00 93 1010.1
20260509093419 20 0 0.0 0.0 0.00 0.00 0.00 93 1010.2
20260509092919 20 0 0.0 0.0 0.00 0.00 0.00 93 1010.3
20260509092418 20 0 0.0 0.0 0.00 0.00 0.00 93 1010.5
20260509091919 20 0 0.0 0.0 0.00 0.00 0.00 93 1010.4
20260509091418 20 0 0.0 0.0 0.00 0.00 0.00 93 1010.5
20260509090918 20 0 0.0 0.0 0.00 0.00 0.00 93 1010.5
20260509090419 20 0 0.0 0.0 0.00 0.00 0.00 92 1010.5
20260509085919 20 0 0.0 0.0 0.00 0.00 0.00 92 1010.6
20260509085418 20 0 0.0 0.0 0.00 0.00 0.00 93 1010.6
20260509084918 20 0 0.0 0.0 0.00 0.00 0.00 93 1010.8
20260509084418 20 0 0.0 0.0 0.00 0.00 0.00 93 1010.9
20260509083918 21 0 0.0 0.0 0.00 0.00 0.00 92 1010.9
20260509083418 21 0 0.0 0.0 0.00 0.00 0.00 92 1010.8
20260509082919 21 0 0.0 0.0 0.00 0.00 0.00 92 1010.9
20260509082418 21 0 0.0 0.0 0.00 0.00 0.00 93 1011.0
20260509081919 21 0 0.0 0.0 0.00 0.00 0.00 93 1011.2
20260509081418 21 0 0.0 0.0 0.00 0.00 0.00 93 1011.4
20260509080918 21 0 0.0 0.0 0.00 0.00 0.00 93 1011.5
20260509080418 21 0 0.0 0.0 0.00 0.00 0.00 93 1011.5
20260509075919 21 0 0.0 0.0 0.00 0.00 0.00 93 1011.5
20260509075418 21 0 0.0 0.0 0.00 0.00 0.00 93 1011.3
20260509074918 21 0 0.0 0.0 0.00 0.00 0.00 92 1011.1
20260509074418 21 0 0.0 0.0 0.00 0.00 0.00 92 1011.1
20260509073418 21 0 0.0 0.0 0.00 0.00 0.00 92 1011.0
20260509072918 21 0 0.0 0.0 0.00 0.00 0.00 92 1010.9
20260509072418 21 0 0.0 0.0 0.00 0.00 0.00 92 1010.8
20260509071920 21 0 0.0 0.0 0.00 0.00 0.00 92 1010.7
20260509071418 21 0 0.0 0.0 0.00 0.00 0.00 92 1010.8
20260509070918 21 0 0.0 0.0 0.00 0.00 0.00 92 1010.8
20260509070418 21 0 0.0 0.0 0.00 0.00 0.00 92 1010.7
20260509065919 21 0 0.0 0.0 0.00 0.00 0.00 92 1010.7
20260509065418 21 0 0.0 0.0 0.00 0.00 0.00 93 1010.6
20260509064919 21 0 0.0 0.0 0.00 0.00 0.00 93 1010.5
20260509064418 20 0 0.0 0.0 0.00 0.00 0.00 93 1010.3
20260509063918 20 0 0.0 0.0 0.00 0.00 0.00 92 1010.3
20260509063418 20 0 0.0 0.0 0.00 0.00 0.00 92 1010.5
20260509062919 20 0 0.0 0.0 0.00 0.00 0.00 92 1010.6
20260509061419 20 0 0.0 0.0 0.00 0.00 0.00 92 1010.3
20260509060918 20 0 0.0 0.0 0.00 0.00 0.00 92 1010.2
20260509060419 20 0 0.0 0.0 0.00 0.00 0.00 92 1010.3
20260509055919 20 0 0.0 0.0 0.00 0.00 0.00 92 1010.3
20260509055420 20 0 0.0 0.0 0.00 0.00 0.00 91 1010.2
20260509054920 20 0 0.0 0.0 0.00 0.00 0.00 91 1010.0
20260509054418 20 0 0.0 0.0 0.00 0.00 0.00 91 1010.0
20260509053918 20 0 0.0 0.0 0.00 0.00 0.00 91 1009.9
20260509053418 20 0 0.0 0.0 0.00 0.00 0.00 91 1009.9
20260509052918 20 0 0.0 0.0 0.00 0.00 0.00 91 1009.9
20260509051919 21 0 0.0 0.0 0.00 0.00 0.00 91 1009.8
20260509051419 21 0 0.0 0.0 0.00 0.00 0.00 91 1009.8
20260509050919 21 0 0.0 0.0 0.00 0.00 0.00 91 1009.8
20260509050419 21 0 0.0 0.0 0.00 0.00 0.00 91 1009.9
20260509045920 21 0 0.0 0.0 0.00 0.00 0.00 91 1010.2
20260509044418 21 0 0.0 0.0 0.00 0.00 0.00 91 1010.4
20260509043919 21 0 0.0 0.0 0.00 0.00 0.00 91 1010.4
20260509043418 21 0 0.0 0.0 0.00 0.00 0.00 91 1010.4
20260509042418 21 0 0.0 0.0 0.00 0.03 0.00 91 1010.5
20260509041920 21 0 0.0 0.0 0.00 0.03 0.00 91 1010.4
20260509041420 21 0 0.0 0.0 0.00 0.03 0.00 90 1010.3
20260509040919 21 0 0.0 0.0 0.00 0.03 0.00 90 1010.2
20260509040419 21 0 0.0 0.0 0.00 0.03 0.00 90 1010.2
20260509035419 21 0 0.0 0.0 0.00 0.03 0.00 90 1010.0
20260509034918 21 0 0.0 0.0 0.00 0.03 0.00 89 1009.9
20260509033919 21 0 0.0 0.0 0.00 0.03 0.00 89 1009.7
20260509033420 21 0 0.0 0.0 0.00 0.03 0.00 88 1009.6
20260509032918 21 0 0.0 0.0 0.00 0.03 0.00 88 1009.4
20260509032420 21 0 0.0 0.0 0.00 0.03 0.00 88 1009.3
20260509031918 21 0 0.0 0.0 0.00 0.03 0.00 88 1009.2
20260509030919 21 0 0.0 0.0 0.00 0.03 0.00 88 1009.2
20260509030419 21 0 0.0 0.0 0.00 0.03 0.00 88 1009.2
20260509025920 21 0 0.0 0.0 0.00 0.03 0.00 88 1009.1
20260509025419 21 0 0.0 0.0 0.00 0.03 0.00 88 1009.0
20260509024919 21 0 0.0 0.0 0.00 0.03 0.00 87 1009.0
20260509024419 22 0 0.0 0.0 0.00 0.03 0.00 87 1008.9
20260509023918 22 0 0.0 0.0 0.00 0.03 0.00 88 1008.9
20260509023419 22 0 0.0 0.0 0.00 0.03 0.00 88 1008.9
20260509022918 22 0 0.0 0.0 0.00 0.03 0.00 87 1009.0
20260509022419 22 0 0.0 0.0 0.00 0.03 0.00 87 1009.0
20260509021919 22 0 0.0 0.0 0.00 0.03 0.00 87 1008.9
20260509021420 22 0 0.0 0.0 0.00 0.03 0.00 87 1008.7
20260509020918 22 0 0.0 0.0 0.00 0.03 0.00 87 1008.4
20260509020419 22 0 0.0 0.0 0.00 0.03 0.00 87 1008.2
20260509015919 22 0 0.0 0.0 0.00 0.03 0.00 87 1008.1
20260509015419 22 0 0.0 0.0 0.00 0.03 0.00 86 1008.1
20260509014920 22 0 0.0 0.0 0.00 0.03 0.00 86 1008.1
20260509014419 22 0 0.0 0.0 0.00 0.03 0.00 86 1008.0
20260509013920 22 0 0.0 0.0 0.00 0.03 0.00 86 1008.0
20260509013418 22 0 0.0 0.0 0.00 0.03 0.00 86 1008.2
20260509012919 22 0 0.0 0.0 0.00 0.03 0.00 85 1008.2
20260509012419 22 0 0.0 0.0 0.00 0.03 0.00 85 1008.1
20260509011918 22 0 0.0 0.0 0.00 0.03 0.00 85 1008.2
20260509011419 22 0 0.0 0.0 0.00 0.03 0.00 85 1008.2
20260509010920 22 0 0.0 0.0 0.00 0.03 0.00 85 1008.3
20260509010419 22 0 0.0 0.0 0.00 0.05 0.00 85 1008.4
20260509005919 22 0 0.0 0.0 0.00 0.05 0.00 84 1008.5
20260509005418 23 0 0.0 0.0 0.00 0.05 0.00 84 1008.5
20260509004419 23 0 0.0 0.0 0.00 0.05 0.00 84 1008.6
20260509003919 23 0 0.0 0.0 0.00 0.05 0.00 83 1008.4
20260509003419 23 0 0.0 0.0 0.00 0.05 0.00 83 1008.5
20260509002918 23 0 0.0 0.0 0.00 0.05 0.00 83 1008.5
20260509002419 23 0 0.0 0.0 0.00 0.05 0.00 83 1008.3
20260509001919 23 0 0.0 0.0 0.00 0.05 0.00 83 1008.4
20260509001419 23 0 0.0 0.0 0.00 0.05 0.00 82 1008.5
20260509000420 23 0 0.0 0.0 0.00 0.05 0.00 82 1008.6
20260508234919 23 0 0.0 0.0 0.00 0.05 0.00 81 1008.5
20260508234420 23 0 0.0 0.0 0.00 0.05 0.00 82 1008.5
20260508233918 23 0 0.0 0.0 0.00 0.05 0.00 81 1008.5
20260508233420 23 0 0.0 0.0 0.00 0.05 0.00 81 1008.4
20260508232919 23 0 0.0 0.0 0.00 0.05 0.00 81 1008.4
20260508232418 23 0 0.0 0.0 0.00 0.05 0.00 81 1008.5
20260508231919 23 0 0.0 0.0 0.00 0.05 0.00 81 1008.4
20260508231419 23 0 0.0 0.0 0.00 0.05 0.00 80 1008.5
20260508230419 23 0 0.0 0.0 0.00 0.05 0.00 80 1008.4
20260508225919 23 0 0.0 0.0 0.00 0.05 0.00 79 1008.4
20260508225419 23 0 0.0 0.0 0.00 0.05 0.00 80 1008.5
20260508224920 23 0 0.0 0.0 0.00 0.05 0.00 79 1008.5
20260508223920 23 0 0.0 0.0 0.00 0.05 0.00 80 1008.4
20260508222919 23 0 0.0 0.0 0.00 0.05 0.00 80 1008.6
20260508222419 23 0 0.0 0.0 0.00 0.05 0.00 80 1008.8
20260508221919 23 0 0.0 0.0 0.00 0.05 0.00 80 1008.9
20260508221420 23 0 0.0 0.0 0.00 0.05 0.00 80 1009.0
20260508220421 22 0 0.0 0.0 0.00 0.05 0.00 80 1009.3
20260508215920 22 0 0.0 0.0 0.00 0.05 0.00 79 1009.4
20260508215419 23 0 0.0 0.0 0.00 0.05 0.00 79 1009.5
20260508214919 23 0 0.0 0.0 0.00 0.05 0.00 79 1009.3
20260508214419 23 0 0.0 0.0 0.00 0.05 0.00 80 1009.3
20260508213920 23 0 0.0 0.0 0.00 0.05 0.00 80 1009.2
20260508213419 23 0 0.0 0.0 0.00 0.05 0.00 80 1009.3
20260508212919 22 0 0.0 0.0 0.00 0.05 0.00 81 1009.5
20260508212420 22 0 0.0 0.0 0.00 0.05 0.00 81 1009.5